sat.trackr.live / text

‹ back to catalog

STARLINK-34300

NORAD 64218 · 2025-117R

PAYLOAD ACTIVE UNKNOWN

§ Identity

Operator
Country
US
Launch date
2025-05-31
Launch site
AFWTR
Launch vehicle
Mass (kg)
RCS (m²)

Purposes: comms

External: N2YO · Heavens-Above · Gunter

§ Orbital elements

Epoch: 2026-05-25T03:19:19.105248Z

Period
94.10 min
Inclination
53.1586°
Eccentricity
0.0001064
Mean motion
15.30212669 rev/d
Perigee alt
474.4 km
Apogee alt
475.9 km
Semi-major
6,853.3 km
B*
5.5029e-4
RAAN
44.2760°
Arg perigee
92.5600°
Mean anomaly
267.5523°
Rev number
5,623

§ Raw data

STARLINK-343001 64218U 25117R   26145.13841557  .00015980  00000+0  55029-3 0  99952 64218  53.1586  44.2760 0001064  92.5600 267.5523 15.30212669 56238

JSON: /api/v1/satellites/64218 · /tle

For live sub-satellite position, see the globe view (requires WebGL).

§ Visibility from observer

Set your observer location to see the next 7 days of passes ≥ 10°. The values pass through the URL so the page stays shareable.

No JS? Fill the form by hand. The geolocation button needs JavaScript.